CZ-2C DEB, 40291

Orbit data source: Space-Track

CZ-2C DEB, 40291 is space debris in SSO originally from a launch on Mon, 27 Oct 2014 UTC launched from the Jiuquan Satellite Launch Center, China (JSC). Debris objects in space refer to the collection of defunct objects orbiting the Earth. Examples of debris include non-operational satellites, rocket bodies, and fragments generated from explosions, collisions, or faulty payload assembly.

Loading next visibility...
Identifier
40291, 2014-066F
Orbit
SSO
Country
Flag of CNCN / PRC
Related business
Manufacturer
CALT
Mission
Spacecraft
Bus & Motor
Unknown
Mass
1 kg wet, 1 kg dry
Launch date (UTC)
2014-10-27 (12 years ago)
Launch vehicle
Unknown
Launch site
Jiuquan Satellite Launch Center, China (JSC)
Object type
Payload
Rocket body
Debris
Shape & HBR
Cone, 0.1 m
Radar Cross Section
0.025 m², Medium (>0.1 m² and < 1m²)

Expand to show TLE details & history
Last TLE update: 2 days ago

TLE from 2 days ago
0 CZ-2C DEB
1 40291U 14066F   26171.40407480  .00001133  00000-0  35609-3 0  9991
2 40291  98.2747 158.7722 0151866 267.2676  91.1121 14.36030462606174
Epoch: 2026-06-20T09:41Z
TLE epoch observation values (Epoch: 2026-06-20T09:41:52.062Z)
Latitude
0.00001°
Longitude
104.68609°
Altitude
778.35 km
Speed
7.463 km/s
True Right ascension
10h 35m 05s
True Declination
0° 00' 00"
Sunlit
Object was in daylight at epoch
Visualization orbit readout
Latitude
Unknown
Longitude
Unknown
Altitude
Unknown
Speed
Unknown
Apparent Right ascension
Unknown
Apparent Declination
Unknown
Sunlit
N/A
Visualization observer readout
Local Sidereal Time
21:37:15
Azimuth
Unknown
Elevation
Unknown
Doppler factor
Unknown
Orbital elements
Apogee altitude
877.297 km
Perigee altitude
660.223 km
Semi-major axis
7,146.897 km
Eccentricity
0.01519
Inclination
98.2747°
RAAN
158.7722°
Arg. of periapsis
267.2676°
True anomaly
92.85112°
Mean anomaly
91.1121°
Eccentric anomaly
91.98171°
Mean motion
3.59225 °/min
Orbital period
100.22 mins
BSTAR
0.00035609
Loading maneuver chart data...
Computing Atmospheric mass density...
Loading historical data...
Loading historical data...
Loading historical data...
Loading historical data...
Loading historical data...
Loading historical data...
Loading historical data...
Other satellites on launch #66 in the year 2014 (2014-10-27 UTC)

Documentation

Showing up to 5 results
|